| time (UTC) | temp F | wind direction | speed knots | gust knots | rain 1hr in | rain 24hr in | rain mn in | humidity % | barometer mb |
| 20260904205943 | 86 | 255 | 0.0 | 0.0 | 0.00 | 0.00 | 0.00 | 85 | 1011.0 |
| 20260904205438 | 87 | 256 | 0.0 | 0.0 | 0.00 | 0.00 | 0.00 | 85 | 1011.6 |
| 20260904204935 | 87 | 356 | 0.0 | 0.0 | 0.00 | 0.00 | 0.00 | 87 | 1011.6 |
| 20260904204430 | 88 | 3 | 0.9 | 0.9 | 0.00 | 0.00 | 0.00 | 86 | 1011.3 |
| 20260904203927 | 88 | 345 | 0.0 | 0.9 | 0.00 | 0.00 | 0.00 | 85 | 1010.6 |
| 20260904203423 | 89 | 10 | 0.0 | 0.0 | 0.00 | 0.00 | 0.00 | 84 | 1010.1 |
| 20260904202918 | 90 | 351 | 0.9 | 0.9 | 0.00 | 0.00 | 0.00 | 82 | 1010.1 |
| 20260904202414 | 91 | 10 | 0.0 | 0.0 | 0.00 | 0.00 | 0.00 | 80 | 1009.9 |
| 20260904201910 | 92 | 2 | 0.0 | 0.0 | 0.00 | 0.00 | 0.00 | 78 | 1010.8 |
| 20260904201405 | 93 | 267 | 0.0 | 0.0 | 0.00 | 0.00 | 0.00 | 74 | 1010.5 |
| 20260904200855 | 95 | 253 | 0.0 | 0.0 | 0.00 | 0.00 | 0.00 | 74 | 1010.5 |
| 20260904200353 | 94 | 328 | 0.0 | 0.9 | 0.00 | 0.00 | 0.00 | 72 | 1010.6 |
| 20260904195848 | 93 | 201 | 2.6 | 2.6 | 0.00 | 0.00 | 0.00 | 71 | 1010.5 |
| 20260904195346 | 94 | 205 | 2.6 | 2.6 | 0.00 | 0.00 | 0.00 | 69 | 1010.4 |
| 20260904194841 | 94 | 148 | 0.9 | 0.9 | 0.00 | 0.00 | 0.00 | 70 | 1010.8 |
| 20260904194341 | 94 | 142 | 0.9 | 1.7 | 0.00 | 0.00 | 0.00 | 69 | 1011.0 |
| 20260904193836 | 96 | 171 | 0.9 | 1.7 | 0.00 | 0.00 | 0.00 | 70 | 1011.1 |
| 20260904193331 | 96 | 183 | 2.6 | 2.6 | 0.00 | 0.00 | 0.00 | 68 | 1011.0 |
| 20260904192826 | 95 | 153 | 2.6 | 2.6 | 0.00 | 0.00 | 0.00 | 70 | 1011.1 |
| 20260904192321 | 95 | 357 | 0.0 | 0.9 | 0.00 | 0.00 | 0.00 | 69 | 1011.2 |
| 20260904191819 | 96 | 164 | 1.7 | 1.7 | 0.00 | 0.00 | 0.00 | 67 | 1011.3 |
| 20260904191315 | 97 | 282 | 0.9 | 0.9 | 0.00 | 0.00 | 0.00 | 64 | 1011.5 |
| 20260904190811 | 97 | 267 | 0.9 | 1.7 | 0.00 | 0.00 | 0.00 | 66 | 1011.5 |
| 20260904190306 | 96 | 5 | 0.0 | 0.0 | 0.00 | 0.00 | 0.00 | 65 | 1011.5 |
| 20260904185802 | 96 | 4 | 0.0 | 0.0 | 0.00 | 0.00 | 0.00 | 68 | 1011.6 |
| 20260904185257 | 94 | 180 | 0.9 | 0.9 | 0.00 | 0.00 | 0.00 | 69 | 1012.0 |
| 20260904184756 | 93 | 178 | 1.7 | 2.6 | 0.00 | 0.00 | 0.00 | 71 | 1011.9 |
| 20260904184251 | 94 | 123 | 2.6 | 2.6 | 0.00 | 0.00 | 0.00 | 70 | 1011.8 |
| 20260904183747 | 95 | 164 | 2.6 | 2.6 | 0.00 | 0.00 | 0.00 | 68 | 1011.9 |
| 20260904183242 | 95 | 144 | 0.0 | 0.0 | 0.00 | 0.00 | 0.00 | 66 | 1012.0 |
| 20260904182737 | 95 | 157 | 3.5 | 4.3 | 0.00 | 0.00 | 0.00 | 65 | 1012.1 |
| 20260904182233 | 95 | 183 | 2.6 | 2.6 | 0.00 | 0.00 | 0.00 | 67 | 1012.5 |
| 20260904181728 | 95 | 184 | 0.9 | 1.7 | 0.00 | 0.00 | 0.00 | 66 | 1012.3 |
| 20260904181227 | 95 | 164 | 0.9 | 0.9 | 0.00 | 0.00 | 0.00 | 68 | 1012.4 |
| 20260904180723 | 95 | 166 | 1.7 | 1.7 | 0.00 | 0.00 | 0.00 | 67 | 1012.5 |
| 20260904180218 | 94 | 49 | 0.0 | 0.9 | 0.00 | 0.00 | 0.00 | 66 | 1012.7 |
| 20260904175717 | 93 | 137 | 3.5 | 4.3 | 0.00 | 0.00 | 0.00 | 68 | 1012.5 |
| 20260904175216 | 93 | 119 | 3.5 | 6.1 | 0.00 | 0.00 | 0.00 | 70 | 1012.6 |
| 20260904174711 | 93 | 169 | 0.9 | 2.6 | 0.00 | 0.00 | 0.00 | 71 | 1012.7 |
| 20260904174207 | 93 | 197 | 2.6 | 2.6 | 0.00 | 0.00 | 0.00 | 72 | 1012.6 |
| 20260904173702 | 93 | 196 | 1.7 | 1.7 | 0.00 | 0.00 | 0.00 | 71 | 1012.6 |
| 20260904173157 | 93 | 175 | 0.9 | 1.7 | 0.00 | 0.00 | 0.00 | 71 | 1012.8 |
| 20260904172654 | 93 | 178 | 1.7 | 1.7 | 0.00 | 0.00 | 0.00 | 71 | 1012.8 |
| 20260904172153 | 93 | 176 | 1.7 | 2.6 | 0.00 | 0.00 | 0.00 | 68 | 1012.8 |
| 20260904171648 | 93 | 186 | 0.0 | 0.9 | 0.00 | 0.00 | 0.00 | 69 | 1012.7 |
| 20260904171143 | 92 | 165 | 2.6 | 2.6 | 0.00 | 0.00 | 0.00 | 74 | 1013.0 |
| 20260904170640 | 91 | 163 | 1.7 | 1.7 | 0.00 | 0.00 | 0.00 | 75 | 1012.8 |
| 20260904170135 | 91 | 90 | 2.6 | 2.6 | 0.00 | 0.00 | 0.00 | 74 | 1013.0 |
| 20260904165634 | 92 | 142 | 2.6 | 2.6 | 0.00 | 0.00 | 0.00 | 72 | 1012.9 |
| 20260904165133 | 93 | 178 | 0.9 | 1.7 | 0.00 | 0.00 | 0.00 | 72 | 1013.3 |
| 20260904164633 | 92 | 95 | 0.9 | 1.7 | 0.00 | 0.00 | 0.00 | 71 | 1013.1 |
| 20260904164129 | 92 | 151 | 1.7 | 1.7 | 0.00 | 0.00 | 0.00 | 70 | 1013.5 |
| 20260904163624 | 92 | 214 | 2.6 | 2.6 | 0.00 | 0.00 | 0.00 | 70 | 1013.3 |
| 20260904163120 | 92 | 139 | 2.6 | 4.3 | 0.00 | 0.00 | 0.00 | 70 | 1013.4 |
| 20260904162614 | 92 | 75 | 0.9 | 0.9 | 0.00 | 0.00 | 0.00 | 71 | 1013.5 |
| 20260904162109 | 91 | 138 | 0.9 | 0.9 | 0.00 | 0.00 | 0.00 | 70 | 1013.6 |
| 20260904161604 | 91 | 202 | 0.9 | 0.9 | 0.00 | 0.00 | 0.00 | 72 | 1013.8 |
| 20260904161059 | 91 | 248 | 0.9 | 0.9 | 0.00 | 0.00 | 0.00 | 70 | 1013.4 |
| 20260904160554 | 91 | 166 | 1.7 | 2.6 | 0.00 | 0.00 | 0.00 | 71 | 1013.6 |
| 20260904160050 | 90 | 156 | 1.7 | 2.6 | 0.00 | 0.00 | 0.00 | 73 | 1013.6 |
| 20260904155550 | 89 | 173 | 0.9 | 1.7 | 0.00 | 0.00 | 0.00 | 75 | 1013.5 |
| 20260904155044 | 89 | 190 | 1.7 | 2.6 | 0.00 | 0.00 | 0.00 | 75 | 1013.8 |
| 20260904154538 | 89 | 158 | 1.7 | 1.7 | 0.00 | 0.00 | 0.00 | 74 | 1013.4 |
| 20260904154033 | 89 | 159 | 2.6 | 2.6 | 0.00 | 0.00 | 0.00 | 75 | 1013.6 |
| 20260904153532 | 89 | 211 | 2.6 | 2.6 | 0.00 | 0.00 | 0.00 | 74 | 1013.6 |
| 20260904153029 | 89 | 188 | 0.9 | 1.7 | 0.00 | 0.00 | 0.00 | 74 | 1013.6 |
| 20260904152524 | 89 | 93 | 0.9 | 0.9 | 0.00 | 0.00 | 0.00 | 74 | 1013.6 |
| 20260904152020 | 89 | 89 | 1.7 | 1.7 | 0.00 | 0.00 | 0.00 | 74 | 1013.4 |
| 20260904151515 | 89 | 94 | 0.9 | 1.7 | 0.00 | 0.00 | 0.00 | 74 | 1013.7 |
| 20260904151014 | 89 | 112 | 0.9 | 0.9 | 0.00 | 0.00 | 0.00 | 75 | 1013.9 |
| 20260904150515 | 88 | 168 | 2.6 | 5.2 | 0.00 | 0.00 | 0.00 | 73 | 1013.7 |
| 20260904150009 | 88 | 166 | 0.0 | 0.9 | 0.00 | 0.00 | 0.00 | 75 | 1013.5 |
| 20260904145504 | 87 | 175 | 0.0 | 1.7 | 0.00 | 0.00 | 0.00 | 76 | 1013.4 |
| 20260904144959 | 87 | 139 | 0.9 | 0.9 | 0.00 | 0.00 | 0.00 | 76 | 1013.9 |
| 20260904144454 | 86 | 130 | 0.0 | 0.9 | 0.00 | 0.00 | 0.00 | 77 | 1013.6 |
| 20260904143950 | 86 | 197 | 2.6 | 2.6 | 0.00 | 0.00 | 0.00 | 78 | 1013.8 |
| 20260904143446 | 85 | 188 | 1.7 | 1.7 | 0.00 | 0.00 | 0.00 | 80 | 1013.8 |
| 20260904142942 | 85 | 138 | 1.7 | 1.7 | 0.00 | 0.00 | 0.00 | 80 | 1013.8 |
| 20260904142439 | 85 | 357 | 1.7 | 1.7 | 0.00 | 0.00 | 0.00 | 80 | 1013.7 |
| 20260904141933 | 85 | 162 | 0.0 | 0.0 | 0.00 | 0.00 | 0.00 | 81 | 1014.1 |
| 20260904141428 | 84 | 158 | 1.7 | 1.7 | 0.00 | 0.00 | 0.00 | 81 | 1013.7 |
| 20260904140925 | 84 | 124 | 0.0 | 0.9 | 0.00 | 0.00 | 0.00 | 82 | 1013.8 |
| 20260904140424 | 84 | 144 | 0.9 | 0.9 | 0.00 | 0.00 | 0.00 | 82 | 1013.7 |
| 20260904135923 | 83 | 56 | 1.7 | 1.7 | 0.00 | 0.00 | 0.00 | 81 | 1013.8 |
| 20260904135423 | 83 | 183 | 0.0 | 0.9 | 0.00 | 0.00 | 0.00 | 82 | 1013.6 |
| 20260904134920 | 83 | 177 | 1.7 | 2.6 | 0.00 | 0.00 | 0.00 | 83 | 1013.8 |
| 20260904134419 | 83 | 194 | 0.0 | 0.9 | 0.00 | 0.00 | 0.00 | 84 | 1013.9 |
| 20260904133914 | 83 | 180 | 1.7 | 2.6 | 0.00 | 0.00 | 0.00 | 84 | 1013.5 |
| 20260904133409 | 83 | 177 | 2.6 | 2.6 | 0.00 | 0.00 | 0.00 | 83 | 1013.6 |
| 20260904132904 | 83 | 166 | 1.7 | 1.7 | 0.00 | 0.00 | 0.00 | 84 | 1013.9 |
| 20260904132359 | 82 | 173 | 3.5 | 6.1 | 0.00 | 0.00 | 0.00 | 86 | 1013.8 |
| 20260904131858 | 82 | 239 | 1.7 | 1.7 | 0.00 | 0.00 | 0.00 | 86 | 1013.6 |
| 20260904131354 | 82 | 172 | 1.7 | 1.7 | 0.00 | 0.00 | 0.00 | 86 | 1013.8 |
| 20260904130849 | 82 | 199 | 1.7 | 1.7 | 0.00 | 0.00 | 0.00 | 86 | 1013.9 |
| 20260904130348 | 82 | 104 | 1.7 | 1.7 | 0.00 | 0.00 | 0.00 | 85 | 1013.6 |
| 20260904125843 | 82 | 121 | 0.9 | 0.9 | 0.00 | 0.00 | 0.00 | 86 | 1014.0 |
| 20260904125340 | 81 | 196 | 2.6 | 4.3 | 0.00 | 0.00 | 0.00 | 86 | 1013.7 |
| 20260904124839 | 81 | 196 | 0.9 | 0.9 | 0.00 | 0.00 | 0.00 | 86 | 1013.8 |
| 20260904124336 | 81 | 183 | 0.9 | 1.7 | 0.00 | 0.00 | 0.00 | 87 | 1014.0 |
| 20260904123830 | 80 | 166 | 0.0 | 0.9 | 0.00 | 0.00 | 0.00 | 87 | 1014.1 |
| 20260904123326 | 80 | 117 | 1.7 | 1.7 | 0.00 | 0.00 | 0.00 | 88 | 1014.1 |
| 20260904122821 | 80 | 24 | 0.0 | 0.0 | 0.00 | 0.00 | 0.00 | 88 | 1014.1 |
| 20260904122320 | 80 | 31 | 0.0 | 0.0 | 0.00 | 0.00 | 0.00 | 89 | 1014.3 |
| 20260904121816 | 80 | 124 | 1.7 | 1.7 | 0.00 | 0.00 | 0.00 | 89 | 1014.3 |
| 20260904121312 | 80 | 259 | 0.0 | 0.0 | 0.00 | 0.00 | 0.00 | 89 | 1014.2 |
| 20260904120808 | 80 | 129 | 2.6 | 2.6 | 0.00 | 0.00 | 0.00 | 90 | 1014.2 |
| 20260904120303 | 80 | 78 | 0.9 | 0.9 | 0.00 | 0.00 | 0.00 | 90 | 1014.4 |
| 20260904115758 | 79 | 202 | 0.0 | 0.9 | 0.00 | 0.00 | 0.00 | 90 | 1014.0 |
| 20260904115254 | 79 | 211 | 1.7 | 1.7 | 0.00 | 0.00 | 0.00 | 90 | 1013.8 |
| 20260904114748 | 79 | 349 | 0.0 | 0.9 | 0.00 | 0.00 | 0.00 | 90 | 1014.0 |
| 20260904114248 | 79 | 146 | 0.0 | 0.9 | 0.00 | 0.00 | 0.00 | 90 | 1014.0 |
| 20260904113743 | 79 | 301 | 0.0 | 0.9 | 0.00 | 0.00 | 0.00 | 91 | 1014.0 |
| 20260904113242 | 79 | 3 | 0.0 | 0.0 | 0.00 | 0.00 | 0.00 | 91 | 1014.2 |
| 20260904112737 | 79 | 43 | 2.6 | 4.3 | 0.00 | 0.00 | 0.00 | 91 | 1013.7 |
| 20260904112233 | 79 | 330 | 0.0 | 0.0 | 0.00 | 0.00 | 0.00 | 91 | 1013.8 |
| 20260904111729 | 79 | 158 | 0.9 | 1.7 | 0.00 | 0.00 | 0.00 | 91 | 1013.9 |
| 20260904111224 | 79 | 123 | 0.9 | 0.9 | 0.00 | 0.00 | 0.00 | 91 | 1013.9 |
| 20260904110720 | 79 | 98 | 0.0 | 0.0 | 0.00 | 0.00 | 0.00 | 91 | 1013.7 |
| 20260904110219 | 79 | 334 | 1.7 | 1.7 | 0.00 | 0.00 | 0.00 | 91 | 1013.8 |
| 20260904105714 | 79 | 212 | 0.9 | 0.9 | 0.00 | 0.00 | 0.00 | 91 | 1013.7 |
| 20260904105209 | 79 | 194 | 0.9 | 0.9 | 0.00 | 0.00 | 0.00 | 91 | 1013.7 |
| 20260904104704 | 79 | 166 | 0.9 | 0.9 | 0.00 | 0.00 | 0.00 | 91 | 1013.9 |
| 20260904104200 | 79 | 354 | 0.9 | 0.9 | 0.00 | 0.00 | 0.00 | 91 | 1013.6 |
| 20260904103656 | 79 | 248 | 1.7 | 1.7 | 0.00 | 0.00 | 0.00 | 91 | 1013.4 |
| 20260904103151 | 79 | 345 | 0.0 | 0.9 | 0.00 | 0.00 | 0.00 | 91 | 1013.6 |
| 20260904102647 | 79 | 323 | 1.7 | 1.7 | 0.00 | 0.00 | 0.00 | 91 | 1013.5 |
| 20260904102142 | 79 | 358 | 0.9 | 0.9 | 0.00 | 0.00 | 0.00 | 91 | 1013.6 |
| 20260904101639 | 79 | 326 | 0.9 | 1.7 | 0.00 | 0.00 | 0.00 | 91 | 1013.6 |
| 20260904101134 | 79 | 148 | 0.0 | 0.9 | 0.00 | 0.00 | 0.00 | 91 | 1013.9 |
| 20260904100630 | 79 | 101 | 0.9 | 1.7 | 0.00 | 0.00 | 0.00 | 91 | 1013.8 |
| 20260904100125 | 79 | 147 | 2.6 | 5.2 | 0.00 | 0.00 | 0.00 | 91 | 1013.8 |
| 20260904095619 | 79 | 316 | 0.9 | 1.7 | 0.00 | 0.00 | 0.00 | 92 | 1013.6 |
| 20260904095114 | 79 | 344 | 0.9 | 0.9 | 0.00 | 0.00 | 0.00 | 92 | 1013.7 |
| 20260904094609 | 79 | 291 | 0.0 | 0.9 | 0.00 | 0.00 | 0.00 | 91 | 1014.0 |
| 20260904094104 | 79 | 357 | 0.0 | 0.0 | 0.00 | 0.00 | 0.00 | 91 | 1013.6 |
| 20260904093601 | 79 | 342 | 0.0 | 0.0 | 0.00 | 0.00 | 0.00 | 91 | 1013.8 |
| 20260904093101 | 79 | 9 | 0.0 | 0.0 | 0.00 | 0.00 | 0.00 | 91 | 1013.6 |
| 20260904092557 | 79 | 229 | 0.9 | 1.7 | 0.00 | 0.00 | 0.00 | 91 | 1013.7 |
| 20260904092053 | 80 | 332 | 0.9 | 0.9 | 0.00 | 0.00 | 0.00 | 91 | 1013.9 |
| 20260904091549 | 80 | 143 | 2.6 | 2.6 | 0.00 | 0.00 | 0.00 | 91 | 1013.9 |
| 20260904091048 | 80 | 349 | 0.0 | 0.0 | 0.00 | 0.00 | 0.00 | 91 | 1013.9 |
| 20260904090544 | 80 | 294 | 0.9 | 0.9 | 0.00 | 0.00 | 0.00 | 90 | 1013.7 |
| 20260904090039 | 80 | 4 | 1.7 | 1.7 | 0.00 | 0.00 | 0.00 | 90 | 1013.5 |
| 20260904085534 | 80 | 5 | 0.0 | 0.9 | 0.00 | 0.00 | 0.00 | 90 | 1013.6 |
| 20260904085034 | 80 | 54 | 0.9 | 1.7 | 0.00 | 0.00 | 0.00 | 90 | 1013.7 |
| 20260904084530 | 80 | 211 | 0.9 | 0.9 | 0.00 | 0.00 | 0.00 | 90 | 1013.7 |
| 20260904084026 | 80 | 344 | 0.9 | 2.6 | 0.00 | 0.00 | 0.00 | 90 | 1013.5 |
| 20260904083522 | 80 | 163 | 0.9 | 0.9 | 0.00 | 0.00 | 0.00 | 90 | 1013.7 |
| 20260904083017 | 80 | 315 | 0.9 | 0.9 | 0.00 | 0.00 | 0.00 | 90 | 1013.6 |
| 20260904082512 | 80 | 34 | 0.0 | 0.0 | 0.00 | 0.00 | 0.00 | 90 | 1013.5 |
| 20260904082007 | 80 | 282 | 0.9 | 1.7 | 0.00 | 0.00 | 0.00 | 90 | 1013.8 |
| 20260904081503 | 80 | 300 | 0.0 | 0.9 | 0.00 | 0.00 | 0.00 | 90 | 1013.8 |
| 20260904080958 | 80 | 348 | 0.0 | 0.9 | 0.00 | 0.00 | 0.00 | 90 | 1013.6 |
| 20260904080453 | 80 | 230 | 1.7 | 1.7 | 0.00 | 0.00 | 0.00 | 90 | 1013.7 |
| 20260904075949 | 80 | 259 | 0.0 | 0.0 | 0.00 | 0.00 | 0.00 | 90 | 1013.5 |
| 20260904075445 | 80 | 252 | 0.0 | 0.9 | 0.00 | 0.00 | 0.00 | 90 | 1013.8 |
| 20260904074944 | 80 | 330 | 0.9 | 1.7 | 0.00 | 0.00 | 0.00 | 90 | 1013.6 |
| 20260904074439 | 80 | 350 | 0.0 | 0.9 | 0.00 | 0.00 | 0.00 | 90 | 1013.6 |
| 20260904073934 | 80 | 124 | 0.9 | 1.7 | 0.00 | 0.00 | 0.00 | 90 | 1013.6 |
| 20260904073430 | 80 | 255 | 0.9 | 1.7 | 0.00 | 0.00 | 0.00 | 89 | 1013.8 |
| 20260904072925 | 80 | 303 | 0.0 | 0.0 | 0.00 | 0.00 | 0.00 | 89 | 1013.8 |
| 20260904072420 | 80 | 229 | 0.9 | 1.7 | 0.00 | 0.00 | 0.00 | 90 | 1013.7 |
| 20260904071915 | 80 | 324 | 0.9 | 0.9 | 0.00 | 0.00 | 0.00 | 90 | 1013.7 |
| 20260904071411 | 80 | 28 | 0.0 | 0.9 | 0.00 | 0.00 | 0.00 | 89 | 1013.5 |
| 20260904070906 | 80 | 293 | 0.9 | 0.9 | 0.00 | 0.00 | 0.00 | 90 | 1013.6 |
| 20260904070405 | 80 | 301 | 0.9 | 0.9 | 0.00 | 0.00 | 0.00 | 90 | 1013.6 |
| 20260904065904 | 80 | 283 | 0.9 | 1.7 | 0.00 | 0.00 | 0.00 | 90 | 1013.7 |
| 20260904065401 | 80 | 146 | 0.9 | 0.9 | 0.00 | 0.00 | 0.00 | 90 | 1013.6 |
| 20260904064900 | 80 | 210 | 0.0 | 0.9 | 0.00 | 0.00 | 0.00 | 90 | 1013.5 |
| 20260904064357 | 80 | 238 | 0.0 | 0.0 | 0.00 | 0.00 | 0.00 | 90 | 1013.5 |
| 20260904063852 | 80 | 359 | 0.0 | 0.9 | 0.00 | 0.00 | 0.00 | 90 | 1013.6 |
| 20260904063348 | 80 | 269 | 0.9 | 0.9 | 0.00 | 0.00 | 0.00 | 90 | 1013.4 |
| 20260904062843 | 80 | 307 | 0.0 | 0.0 | 0.00 | 0.00 | 0.00 | 90 | 1013.5 |
| 20260904062340 | 80 | 293 | 0.9 | 1.7 | 0.00 | 0.00 | 0.00 | 90 | 1013.5 |
| 20260904061835 | 80 | 162 | 0.0 | 0.9 | 0.00 | 0.00 | 0.00 | 90 | 1013.5 |
| 20260904061331 | 80 | 97 | 0.0 | 0.9 | 0.00 | 0.00 | 0.00 | 90 | 1013.9 |
| 20260904060827 | 80 | 204 | 0.0 | 0.0 | 0.00 | 0.00 | 0.00 | 90 | 1014.0 |
| 20260904060323 | 80 | 158 | 0.9 | 0.9 | 0.00 | 0.00 | 0.00 | 90 | 1014.0 |
| 20260904055818 | 80 | 9 | 0.0 | 0.0 | 0.00 | 0.00 | 0.00 | 90 | 1014.0 |
| 20260904055313 | 80 | 336 | 0.9 | 0.9 | 0.00 | 0.00 | 0.00 | 90 | 1014.2 |
| 20260904054803 | 80 | 262 | 0.9 | 0.9 | 0.00 | 0.00 | 0.00 | 90 | 1014.1 |
| 20260904054259 | 80 | 30 | 1.7 | 1.7 | 0.00 | 0.00 | 0.00 | 90 | 1014.2 |
| 20260904053754 | 80 | 347 | 0.0 | 0.0 | 0.00 | 0.00 | 0.00 | 90 | 1014.2 |
| 20260904053253 | 80 | 343 | 0.0 | 0.9 | 0.00 | 0.00 | 0.00 | 90 | 1014.2 |
| 20260904052750 | 80 | 180 | 0.9 | 0.9 | 0.00 | 0.00 | 0.00 | 90 | 1014.5 |
| 20260904052245 | 80 | 105 | 0.0 | 0.9 | 0.00 | 0.00 | 0.00 | 89 | 1014.5 |
| 20260904051742 | 80 | 349 | 0.0 | 0.0 | 0.00 | 0.00 | 0.00 | 89 | 1014.7 |
| 20260904051237 | 80 | 258 | 1.7 | 1.7 | 0.00 | 0.00 | 0.00 | 89 | 1014.6 |
| 20260904050732 | 80 | 193 | 1.7 | 2.6 | 0.00 | 0.00 | 0.00 | 90 | 1014.4 |
| 20260904050228 | 81 | 242 | 1.7 | 2.6 | 0.00 | 0.00 | 0.00 | 89 | 1014.5 |
| 20260904045723 | 81 | 164 | 2.6 | 2.6 | 0.00 | 0.00 | 0.00 | 89 | 1014.5 |
| 20260904045218 | 81 | 232 | 0.0 | 0.0 | 0.00 | 0.00 | 0.00 | 89 | 1014.4 |
| 20260904044712 | 81 | 254 | 0.9 | 0.9 | 0.00 | 0.00 | 0.00 | 89 | 1014.6 |
| 20260904044209 | 81 | 216 | 0.9 | 0.9 | 0.00 | 0.00 | 0.00 | 89 | 1014.6 |
| 20260904043705 | 81 | 258 | 1.7 | 1.7 | 0.00 | 0.00 | 0.00 | 89 | 1014.7 |
| 20260904043201 | 81 | 146 | 0.0 | 0.0 | 0.00 | 0.00 | 0.00 | 88 | 1014.6 |
| 20260904042657 | 81 | 313 | 1.7 | 2.6 | 0.00 | 0.00 | 0.00 | 88 | 1014.6 |
| 20260904042153 | 81 | 359 | 2.6 | 2.6 | 0.00 | 0.00 | 0.00 | 88 | 1014.5 |
| 20260904041647 | 81 | 187 | 1.7 | 2.6 | 0.00 | 0.00 | 0.00 | 88 | 1014.7 |
| 20260904041143 | 81 | 8 | 0.9 | 1.7 | 0.00 | 0.00 | 0.00 | 88 | 1014.7 |
| 20260904040639 | 81 | 119 | 0.9 | 0.9 | 0.00 | 0.00 | 0.00 | 88 | 1014.7 |
| 20260904040135 | 81 | 280 | 0.9 | 1.7 | 0.00 | 0.00 | 0.00 | 88 | 1014.7 |
| 20260904035631 | 81 | 340 | 0.0 | 0.0 | 0.00 | 0.00 | 0.00 | 88 | 1014.6 |
| 20260904035130 | 82 | 109 | 0.0 | 0.0 | 0.00 | 0.00 | 0.00 | 88 | 1014.6 |
| 20260904034630 | 82 | 253 | 1.7 | 1.7 | 0.00 | 0.00 | 0.00 | 88 | 1014.5 |
| 20260904034125 | 82 | 180 | 1.7 | 2.6 | 0.00 | 0.00 | 0.00 | 87 | 1014.6 |
| 20260904033621 | 82 | 237 | 0.9 | 0.9 | 0.00 | 0.00 | 0.00 | 87 | 1014.6 |
| 20260904033119 | 82 | 190 | 1.7 | 1.7 | 0.00 | 0.00 | 0.00 | 87 | 1014.6 |
| 20260904032614 | 82 | 231 | 0.0 | 0.0 | 0.00 | 0.00 | 0.00 | 87 | 1014.7 |
| 20260904032113 | 82 | 252 | 0.9 | 0.9 | 0.00 | 0.00 | 0.00 | 86 | 1014.7 |
| 20260904031612 | 82 | 309 | 0.9 | 1.7 | 0.00 | 0.00 | 0.00 | 86 | 1014.7 |
| 20260904031108 | 82 | 220 | 0.9 | 0.9 | 0.00 | 0.00 | 0.00 | 85 | 1014.8 |
| 20260904030604 | 82 | 225 | 0.0 | 0.9 | 0.00 | 0.00 | 0.00 | 85 | 1014.5 |
| 20260904030059 | 82 | 205 | 0.0 | 0.9 | 0.00 | 0.00 | 0.00 | 85 | 1014.8 |
| 20260904025554 | 83 | 191 | 0.9 | 0.9 | 0.00 | 0.00 | 0.00 | 85 | 1014.8 |
| 20260904025049 | 83 | 203 | 0.0 | 0.0 | 0.00 | 0.00 | 0.00 | 85 | 1014.6 |
| 20260904024545 | 83 | 210 | 0.9 | 0.9 | 0.00 | 0.00 | 0.00 | 84 | 1014.8 |
| 20260904024041 | 83 | 341 | 0.9 | 0.9 | 0.00 | 0.00 | 0.00 | 85 | 1014.6 |
| 20260904023537 | 83 | 161 | 0.9 | 1.7 | 0.00 | 0.00 | 0.00 | 84 | 1015.0 |
| 20260904023033 | 83 | 214 | 0.9 | 1.7 | 0.00 | 0.00 | 0.00 | 84 | 1014.9 |
| 20260904022533 | 83 | 180 | 2.6 | 4.3 | 0.00 | 0.00 | 0.00 | 84 | 1014.9 |
| 20260904022030 | 83 | 184 | 2.6 | 2.6 | 0.00 | 0.00 | 0.00 | 84 | 1014.9 |
| 20260904021525 | 83 | 200 | 0.9 | 0.9 | 0.00 | 0.00 | 0.00 | 84 | 1015.3 |
| 20260904021020 | 83 | 247 | 0.0 | 0.0 | 0.00 | 0.00 | 0.00 | 84 | 1015.4 |
| 20260904020520 | 83 | 191 | 0.0 | 0.0 | 0.00 | 0.00 | 0.00 | 84 | 1015.1 |
| 20260904020015 | 84 | 209 | 0.9 | 0.9 | 0.00 | 0.00 | 0.00 | 83 | 1015.1 |
| 20260904015509 | 84 | 233 | 1.7 | 1.7 | 0.00 | 0.00 | 0.00 | 83 | 1015.2 |
| 20260904015008 | 84 | 125 | 0.0 | 0.9 | 0.00 | 0.00 | 0.00 | 83 | 1015.4 |
| 20260904014503 | 84 | 216 | 0.0 | 0.0 | 0.00 | 0.00 | 0.00 | 84 | 1015.2 |
| 20260904013958 | 84 | 238 | 0.9 | 1.7 | 0.00 | 0.00 | 0.00 | 84 | 1015.1 |
| 20260904013454 | 84 | 190 | 0.9 | 0.9 | 0.00 | 0.00 | 0.00 | 85 | 1015.1 |
| 20260904012951 | 84 | 354 | 0.0 | 0.9 | 0.00 | 0.00 | 0.00 | 85 | 1015.0 |
| 20260904012450 | 83 | 162 | 0.9 | 0.9 | 0.00 | 0.00 | 0.00 | 85 | 1014.9 |
| 20260904011944 | 83 | 220 | 0.0 | 0.0 | 0.00 | 0.00 | 0.00 | 86 | 1014.9 |
| 20260904011439 | 84 | 5 | 0.0 | 0.0 | 0.00 | 0.00 | 0.00 | 85 | 1015.0 |
| 20260904010935 | 84 | 10 | 0.0 | 0.0 | 0.00 | 0.00 | 0.00 | 85 | 1014.8 |
| 20260904010431 | 84 | 353 | 0.0 | 0.0 | 0.00 | 0.00 | 0.00 | 84 | 1014.8 |
| 20260904005926 | 84 | 192 | 0.0 | 0.9 | 0.00 | 0.00 | 0.00 | 84 | 1014.8 |
| 20260904005422 | 85 | 239 | 0.0 | 0.9 | 0.00 | 0.00 | 0.00 | 83 | 1014.3 |
| 20260904004921 | 85 | 137 | 0.0 | 0.0 | 0.00 | 0.00 | 0.00 | 83 | 1014.4 |
| 20260904004418 | 86 | 182 | 0.9 | 1.7 | 0.00 | 0.00 | 0.00 | 82 | 1014.1 |
| 20260904003919 | 86 | 88 | 0.9 | 0.9 | 0.00 | 0.00 | 0.00 | 82 | 1014.2 |
| 20260904003414 | 86 | 219 | 0.9 | 1.7 | 0.00 | 0.00 | 0.00 | 82 | 1014.1 |
| 20260904002909 | 86 | 267 | 0.0 | 0.9 | 0.00 | 0.00 | 0.00 | 81 | 1014.0 |
| 20260904002406 | 86 | 251 | 2.6 | 4.3 | 0.00 | 0.00 | 0.00 | 82 | 1013.8 |
| 20260904001904 | 86 | 207 | 0.9 | 0.9 | 0.00 | 0.00 | 0.00 | 83 | 1013.4 |
| 20260904001400 | 86 | 182 | 1.7 | 1.7 | 0.00 | 0.00 | 0.00 | 83 | 1013.5 |
| 20260904000855 | 84 | 82 | 1.7 | 2.6 | 0.00 | 0.00 | 0.00 | 85 | 1013.5 |
| 20260904000355 | 83 | 227 | 1.7 | 2.6 | 0.00 | 0.00 | 0.00 | 91 | 1013.4 |
| 20260903235855 | 83 | 357 | 0.0 | 0.0 | 0.00 | 0.00 | 0.00 | 91 | 1013.4 |
| 20260903235351 | 83 | 357 | 0.0 | 0.0 | 0.00 | 0.00 | 0.00 | 91 | 1013.2 |
| 20260903234850 | 83 | 354 | 0.0 | 0.0 | 0.00 | 0.00 | 0.00 | 91 | 1013.1 |
| 20260903234346 | 83 | 354 | 0.0 | 0.0 | 0.00 | 0.00 | 0.00 | 91 | 1013.0 |
| 20260903233842 | 83 | 354 | 0.0 | 0.0 | 0.00 | 0.00 | 0.00 | 90 | 1013.1 |
| 20260903233338 | 83 | 354 | 0.0 | 0.0 | 0.00 | 0.00 | 0.00 | 90 | 1012.9 |
| 20260903232837 | 84 | 354 | 0.0 | 0.0 | 0.00 | 0.00 | 0.00 | 90 | 1012.8 |
| 20260903232333 | 84 | 354 | 0.0 | 0.0 | 0.00 | 0.00 | 0.00 | 90 | 1012.9 |
| 20260903231832 | 84 | 356 | 0.0 | 0.0 | 0.00 | 0.00 | 0.00 | 90 | 1013.0 |
| 20260903231328 | 84 | 356 | 0.0 | 0.0 | 0.00 | 0.00 | 0.00 | 89 | 1012.9 |
| 20260903230823 | 84 | 355 | 0.0 | 0.0 | 0.00 | 0.00 | 0.00 | 89 | 1013.0 |
| 20260903230318 | 84 | 356 | 0.0 | 0.0 | 0.00 | 0.00 | 0.00 | 89 | 1013.1 |
| 20260903225814 | 85 | 354 | 0.0 | 0.0 | 0.00 | 0.00 | 0.00 | 88 | 1013.1 |
| 20260903225310 | 85 | 354 | 0.0 | 0.0 | 0.00 | 0.00 | 0.00 | 88 | 1013.0 |
| 20260903224807 | 85 | 353 | 0.0 | 0.0 | 0.00 | 0.00 | 0.00 | 88 | 1013.0 |
| 20260903224302 | 85 | 3 | 0.0 | 0.0 | 0.00 | 0.00 | 0.00 | 88 | 1012.8 |
| 20260903223758 | 86 | 355 | 0.0 | 0.0 | 0.00 | 0.00 | 0.00 | 88 | 1013.0 |
| 20260903223256 | 86 | 356 | 0.0 | 0.0 | 0.00 | 0.00 | 0.00 | 88 | 1013.0 |
| 20260903222751 | 86 | 359 | 0.0 | 0.9 | 0.00 | 0.00 | 0.00 | 87 | 1012.9 |
| 20260903222250 | 87 | 341 | 0.0 | 0.0 | 0.00 | 0.00 | 0.00 | 87 | 1012.9 |
| 20260903221745 | 87 | 2 | 0.0 | 0.0 | 0.00 | 0.00 | 0.00 | 87 | 1013.0 |
| 20260903221244 | 87 | 353 | 0.0 | 0.0 | 0.00 | 0.00 | 0.00 | 86 | 1012.9 |
| 20260903220742 | 87 | 346 | 0.0 | 0.0 | 0.00 | 0.00 | 0.00 | 86 | 1013.2 |
| 20260903220237 | 88 | 351 | 0.0 | 0.0 | 0.00 | 0.00 | 0.00 | 85 | 1013.1 |
| 20260903215736 | 88 | 349 | 0.0 | 0.0 | 0.00 | 0.00 | 0.00 | 85 | 1013.1 |
| 20260903215232 | 89 | 346 | 0.0 | 0.0 | 0.00 | 0.00 | 0.00 | 84 | 1013.1 |
| 20260903214729 | 89 | 328 | 0.0 | 0.0 | 0.00 | 0.00 | 0.00 | 84 | 1013.2 |
| 20260903214226 | 90 | 358 | 0.0 | 0.0 | 0.00 | 0.00 | 0.00 | 84 | 1013.1 |
| 20260903213720 | 90 | 355 | 0.0 | 0.0 | 0.00 | 0.00 | 0.00 | 82 | 1013.2 |
| 20260903213216 | 90 | 9 | 0.0 | 0.0 | 0.00 | 0.00 | 0.00 | 80 | 1013.2 |
| 20260903212712 | 91 | 318 | 0.0 | 0.9 | 0.00 | 0.00 | 0.00 | 80 | 1013.3 |
| 20260903212208 | 91 | 6 | 0.0 | 0.0 | 0.00 | 0.00 | 0.00 | 79 | 1013.2 |
| 20260903211707 | 91 | 306 | 0.0 | 0.0 | 0.00 | 0.00 | 0.00 | 79 | 1013.2 |
| 20260903211204 | 91 | 323 | 0.0 | 0.0 | 0.00 | 0.00 | 0.00 | 79 | 1013.3 |
| 20260903210700 | 92 | 9 | 0.0 | 0.0 | 0.00 | 0.00 | 0.00 | 77 | 1013.4 |
| 20260903210155 | 92 | 341 | 0.0 | 0.0 | 0.00 | 0.00 | 0.00 | 77 | 1013.3 |